Flight Track Log - Related Links

Times and Time Zones

All times are in EDT time to prevent confusion due to time zone crossing. See the N744P flight status page for this flight to view local times or setup timezone preferences in your user account.

Time Position Orientation Groundspeed Altitude Reporting Facility
EDT Latitude Longitude Course Direction KTS MPH feet Rate Location/Type
Thu 08:48:48 PM 40.7667 -73.8500 217° Southwest 142 163 1,500  Level New York TRACON
Thu 08:49:42 PM 40.7333 -73.8167 143° Southeast 186 214 3,100 1,895 Climbing New York TRACON
Thu 08:50:42 PM 40.8000 -73.7667 30° Northeast 294 338 5,100 2,800 Climbing New York TRACON
Thu 08:51:42 PM 40.8333 -73.8500 298° West 265 305 8,700 3,300 Climbing New York TRACON
Thu 08:52:00 PM 40.5934 -74.3864 246° West  Level FlightAware Approximate
Thu 08:52:42 PM 40.8333 -73.9333 270° West 265 305 11,700  Level New York TRACON
Thu 08:53:00 PM 40.5497 -74.5178 246° West  Level FlightAware Approximate
Thu 08:53:36 PM 40.8167 -74.0500 259° West 332 382 13,100  Level New York TRACON
Thu 08:54:00 PM 40.5154 -74.6513 217° Southwest  Level FlightAware Approximate
Thu 08:54:36 PM 40.7833 -74.1667 249° West 350 403 14,900  Level New York TRACON
Thu 08:55:36 PM 40.7333 -74.2833 241° Southwest 394 453 15,600 704 Climbing New York TRACON
Thu 08:57:35 PM 40.6364 -74.4931 239° Southwest 395 455 17,000 1,133 Climbing New York Center
Thu 08:58:36 PM 40.5736 -74.6236 238° Southwest 384 442 19,000 1,884 Climbing New York Center
Thu 08:59:36 PM 40.5161 -74.7239 233° Southwest 384 442 20,800 1,525 Climbing New York Center
Thu 09:00:34 PM 40.4500 -74.8347 232° Southwest 394 453 22,000 605 Climbing New York Center
Thu 09:01:35 PM 40.3789 -74.9614 234° Southwest 400 460 22,000  Level New York Center
Thu 09:02:35 PM 40.3103 -75.0714 231° Southwest 400 460 22,000  Level New York Center
Thu 09:03:34 PM 40.2458 -75.1817 233° Southwest 400 460 22,000  Level New York Center
Thu 09:04:34 PM 40.1811 -75.2944 233° Southwest 400 460 22,000  Level New York Center
Thu 09:05:34 PM 40.1122 -75.4039 231° Southwest 400 460 22,000  Level New York Center
Thu 09:06:35 PM 40.0431 -75.5158 231° Southwest 400 460 22,000 -98 Level New York Center
Thu 09:07:36 PM 39.9719 -75.6222 229° Southwest 400 460 21,800 -595 Descending New York Center
Thu 09:08:36 PM 39.9050 -75.7283 231° Southwest 400 460 20,800 -1,017 Descending New York Center
Thu 09:09:34 PM 39.8361 -75.8317 229° Southwest 394 453 19,800 -966 Descending New York Center
Thu 09:10:34 PM 39.7758 -75.9219 229° Southwest 387 445 18,900 -992 Descending New York Center
Thu 09:12:00 PM 39.6943 -76.0911 241° Southwest  Level FlightAware Approximate
Thu 09:13:30 PM 39.5667 -76.2333 241° Southwest 358 412 15,900  Level Potomac TRACON
Thu 09:15:31 PM 39.4500 -76.4167 231° Southwest 338 389 12,000 -1,484 Descending Potomac TRACON
Thu 09:16:32 PM 39.3667 -76.4833 212° Southwest 326 375 11,400 -545 Descending Potomac TRACON
Thu 09:17:32 PM 39.3000 -76.5500 218° Southwest 321 369 10,900 -480 Descending Potomac TRACON
Thu 09:19:27 PM 39.1667 -76.6667 214° Southwest 265 305 10,000 -298 Descending Potomac TRACON
Thu 09:20:33 PM 39.1000 -76.7333 218° Southwest 258 297 10,000 -286 Level Potomac TRACON
Thu 09:21:33 PM 39.0500 -76.8000 226° Southwest 258 297 9,400 -1,200 Descending Potomac TRACON
Thu 09:22:33 PM 39.0000 -76.8667 226° Southwest 252 290 7,600 -1,700 Descending Potomac TRACON
Thu 09:23:33 PM 38.9667 -76.9333 237° Southwest 259 298 6,000 -833 Descending Potomac TRACON
Thu 09:25:33 PM 39.0167 -77.0667 296° West 214 246 5,100 -530 Descending Potomac TRACON
Thu 09:26:34 PM 39.0500 -77.1167 311° West 215 247 4,400 -696 Descending Potomac TRACON
Thu 09:28:34 PM 39.0333 -77.2167 258° West 164 189 3,000 -464 Descending Potomac TRACON
Thu 09:29:35 PM 39.0000 -77.1833 142° Southeast 160 184 3,000 -198 Level Potomac TRACON
Thu 09:30:35 PM 38.9667 -77.1500 142° Southeast 169 194 2,600 -400 Descending Potomac TRACON

Login

Don't have an account? Register now (free) for customized features, flight alerts, and more!